Regional Weather Roundup
Issued by NWS

Home | Current Version | Previous Version | Graphics & Text | Print | Product List | Glossary On
Versions: 1 2 3 4 5 6 7 8 9 10 11 12 13 14 15 16 17 18 19 20 21 22 23 24 25 26 27 28 29 30 31 32 33 34 35 36 37 38 39 40 41 42 43 44 45 46 47 48 49 50
000
ASUS44 KMEG 061000
RWRTN
TENNESSEE HOURLY STATE WEATHER ROUNDUP
NATIONAL WEATHER SERVICE MEMPHIS TN
400 AM CST FRI MAR 06 2015

TNZ002-004-019-021-049-052-054-088>092-061100-
WEST TENNESSEE

CITY           SKY/WX    TMP DP  RH WIND       PRES   REMARKS
MEMPHIS INTL   PTCLDY    18   9  68 E5        30.57S WCI  11
NWS MEMPHIS      N/A     11 N/A N/A MISG        N/A
JACKSON        MOCLDY    11   5  77 NE3       30.56F
DYERSBURG      MOCLDY     9  -6  52 CALM      30.60S
UNION CITY     CLEAR      3   1  92 CALM      30.58R
PARIS            N/A      1  -2  85 NE3       30.55S
LEXINGTON      CLEAR      9   3  78 CALM      30.53F
SAVANNAH       CLEAR     14   5  67 CALM      30.54S
$$

TNZ008-025-027-028-033-062-065-066-061100-
NORTH MIDDLE TENNESSEE

CITY           SKY/WX    TMP DP  RH WIND       PRES   REMARKS
NASHVILLE      MOCLDY    11   6  81 CALM      30.54F
CLARKSVILLE    MOCLDY     3   0  87 NW3       30.56S
COOKEVILLE     CLEAR     12  10  92 CALM      30.47R
CROSSVILLE     PTCLDY    13   8  81 NE5       30.41R WCI   5
$$

TNZ061-075-076-078-094-096-097-061100-
SOUTH MIDDLE TENNESSEE

CITY           SKY/WX    TMP DP  RH WIND       PRES   REMARKS
FAYETTEVILLE   CLEAR     12   9  85 N5          N/A  WCI   4
TULLAHOMA      CLEAR     10   7  85 N3          N/A
WINCHESTER     CLEAR     14  12  92 VRB5      30.47S WCI   6
COLUMBIA         N/A     10  10 100 CALM      30.51R
SHELBYVILLE    CLEAR     12   9  85 N3        30.51S
$$

TNZ017-018-042-046-047-061100-
NORTHEAST TENNESSEE

CITY           SKY/WX    TMP DP  RH WIND       PRES   REMARKS
TRI CITIES     MOCLDY    15  10  80 N5        30.44R WCI   8
ELIZABETHTON   FLURRIES  18  12  79 SW5       30.41R WCI  11
$$

TNZ012-013-036-069-073-074-061100-
CENTRAL EAST TENNESSEE

CITY           SKY/WX    TMP DP  RH WIND       PRES   REMARKS
KNOXVILLE      FLURRIES  20  14  77 N10       30.45R WCI   9
OAK RIDGE      PTCLDY    18  10  71 VRB3      30.48R
GATLINBURG     CLOUDY    21  18  86 NE5       30.44S WCI  15
$$

TNZ083-085-099-061100-
SOUTHEAST TENNESSEE

CITY           SKY/WX    TMP DP  RH WIND       PRES   REMARKS
CHATTANOOGA    PTCLDY    23  13  65 N12       30.45S WCI  12
$$

SKY/WX REPORTED AS FAIR MEANS FEW OR NO CLOUDS BELOW
12 THOUSAND FEET.



USA.gov is the U.S. government's official web portal to all federal, state and local government web resources and services.